"2016-07-18 00:00:00",1818649,8.83,178.2,2.57,0.319,25.65,111.0109,27.49,28.62,24.32,0,111.4,12.98,28.34,140.2
"2016-07-18 00:00:30",1818650,8.93,175.5,0.991,0.159,25.68,111.0064,27.48,28.59,23.86,0,111.4,12.98,28.33,137.5
"2016-07-18 00:01:00",1818651,8.61,179.2,1.977,0.341,25.64,110.9921,27.44,28.56,23.93,0,111.4,12.98,28.29,141.2
"2016-07-18 00:01:30",1818652,8.87,176.4,1.689,0.389,25.62,110.9739,27.4,28.53,24.52,0,111.4,12.98,28.25,138.4
"2016-07-18 00:02:00",1818653,8.5,177.3,2.221,0.332,25.62,110.9722,27.39,28.51,24.64,0,111.4,12.98,28.24,139.3
"2016-07-18 00:02:30",1818654,7.729,175.9,3.478,0.459,25.65,110.9523,27.34,28.49,25.12,0,111.4,12.98,28.19,137.9
"2016-07-18 00:03:00",1818655,8.84,178.5,2.239,0.301,25.52,110.9397,27.31,28.45,25.08,0,111.4,12.98,28.16,140.5
"2016-07-18 00:03:30",1818656,8.76,177,1.797,0.286,25.54,110.9383,27.31,28.42,25.19,0,111.4,12.98,28.15,139.0
"2016-07-18 00:04:00",1818657,8.69,179.5,2.321,0.244,25.58,110.9178,27.25,28.4,25.27,0,111.4,12.99,28.10,141.5
"2016-07-18 00:04:30",1818658,9.14,181.2,2.518,0.284,25.63,110.9073,27.23,28.38,25.53,0,111.4,12.98,28.07,143.2
"2016-07-18 00:05:00",1818659,9.33,179.4,2.869,0.335,25.63,110.907,27.23,28.34,25.82,0,111.4,12.98,28.07,141.4
"2016-07-18 00:05:30",1818660,8.5,184.3,2.915,0.337,25.64,110.8922,27.19,28.32,26.06,0,111.4,12.98,28.03,146.3
"2016-07-18 00:06:00",1818661,8.36,184.5,1.914,0.321,25.63,110.8798,27.16,28.3,26.31,0,111.4,12.98,28.00,146.5
"2016-07-18 00:06:30",1818662,8.5,179.6,3.503,0.413,25.61,110.8755,27.14,28.27,26.46,0,111.4,12.98,27.99,141.6
"2016-07-18 00:07:00",1818663,8.34,177.7,2.767,0.194,25.69,110.8764,27.15,28.26,26.51,0,111.4,12.98,27.99,139.7
"2016-07-18 00:07:30",1818664,8.43,177,1.388,0.389,25.7,110.8699,27.13,28.23,26.28,0,111.4,12.98,27.98,139.0
"2016-07-18 00:08:00",1818665,8.38,177.4,3.172,0.234,25.65,110.8551,27.09,28.2,26.2,0,111.4,12.98,27.94,139.4
"2016-07-18 00:08:30",1818666,8.85,176.4,3.015,0.407,25.69,110.8448,27.07,28.19,26.74,0,111.4,12.98,27.91,138.4
"2016-07-18 00:09:00",1818667,8.38,173.9,5.406,0.402,25.69,110.8459,27.07,28.16,27.09,0,111.4,12.98,27.92,135.9
"2016-07-18 00:09:30",1818668,8.45,171.8,2.553,0.566,25.64,110.8471,27.07,28.15,27.18,0,111.4,12.98,27.92,133.8
"2016-07-18 00:10:00",1818669,8.52,173.4,2.571,0.358,25.71,110.8443,27.06,28.15,27.05,0,111.4,12.98,27.91,135.4
"2016-07-18 00:10:30",1818670,8.15,169.5,1.376,0.505,25.81,110.8309,27.03,28.11,27.02,0,111.4,12.98,27.88,131.5
"2016-07-18 00:11:00",1818671,8.36,172.8,3.068,0.439,25.79,110.8199,27,28.08,27.03,0,111.4,12.98,27.85,134.8
"2016-07-18 00:11:30",1818672,8.98,170.8,1.84,0.362,25.73,110.8215,27.01,28.08,26.74,0,111.4,12.98,27.85,132.8
"2016-07-18 00:12:00",1818673,8.48,173.1,3.774,0.447,25.69,110.8219,27.01,28.07,26.63,0,111.4,12.98,27.85,135.1
"2016-07-18 00:12:30",1818674,8.19,171.5,3.651,0.158,25.77,110.8265,27.02,28.05,26.26,0,111.4,12.98,27.86,133.5
"2016-07-18 00:13:00",1818675,7.679,174.5,1.963,0.195,25.71,110.8226,27.01,28.02,25.94,0,111.4,12.98,27.85,136.5
"2016-07-18 00:13:30",1818676,8.25,171.5,2.759,0.268,25.7,110.8182,27,28.01,26,0,111.4,12.98,27.84,133.5
"2016-07-18 00:14:00",1818677,7.614,171,1.504,0.5,25.7,110.8186,27,28.01,25.84,0,111.4,12.98,27.84,133.0
"2016-07-18 00:14:30",1818678,7.81,172,2.093,0.286,25.69,110.8183,27,28,25.79,0,111.4,12.98,27.84,134.0
"2016-07-18 00:15:00",1818679,7.75,171.4,2.782,0.204,25.75,110.82,27,27.99,25.39,0,111.4,12.98,27.85,133.4
"2016-07-18 00:15:30",1818680,7.607,175.7,1.227,0.164,25.62,110.8189,27,27.97,25.16,0,111.4,12.98,27.85,137.7
"2016-07-18 00:16:00",1818681,7.557,175.2,1.94,0.303,25.74,110.8161,26.99,27.97,24.47,0,111.4,12.98,27.84,137.2
"2016-07-18 00:16:30",1818682,7.339,175,3.087,0.243,25.7,110.8215,27.01,27.97,24.66,0,111.4,12.98,27.85,137.0
"2016-07-18 00:17:00",1818683,7.421,173.9,1.9,0.295,25.7,110.8228,27.01,27.97,25.14,0,111.4,12.98,27.86,135.9
"2016-07-18 00:17:30",1818684,6.864,172,2.961,0.398,25.65,110.8272,27.02,27.96,26.36,0,111.4,12.98,27.87,134.0
"2016-07-18 00:18:00",1818685,7.287,169.4,3.222,0.529,25.69,110.8318,27.03,27.98,26.51,0,111.4,12.98,27.88,131.4
"2016-07-18 00:18:30",1818686,7.089,176.6,3.317,0.266,25.65,110.8321,27.03,27.97,26.74,0,111.4,12.98,27.88,138.6
"2016-07-18 00:19:00",1818687,6.632,175.5,5.145,0.379,25.61,110.8324,27.03,27.97,26.87,0,111.4,12.98,27.88,137.5
"2016-07-18 00:19:30",1818688,7.444,174.5,4.718,0.365,25.61,110.8321,27.03,27.97,27.06,0,111.4,12.98,27.88,136.5
"2016-07-18 00:20:00",1818689,7.871,179.4,1.755,0.33,25.68,110.8321,27.03,27.98,27.11,0,111.4,12.98,27.88,141.4
"2016-07-18 00:20:30",1818690,7.353,178.4,1.785,0.312,25.67,110.8318,27.03,27.98,27.21,0,111.4,12.98,27.88,140.4
"2016-07-18 00:21:00",1818691,7.111,176.4,1.823,0.193,25.79,110.8335,27.04,27.99,27.09,0,111.4,12.98,27.88,138.4
"2016-07-18 00:21:30",1818692,7.796,178.7,3.582,0.232,25.76,110.8397,27.05,28,26.91,0,111.4,12.98,27.90,140.7
"2016-07-18 00:22:00",1818693,8.1,180.1,3.899,0.588,25.84,110.8445,27.07,28,26.42,0,111.4,12.98,27.91,142.1
"2016-07-18 00:22:30",1818694,7.929,180.8,4.897,0.282,25.81,110.8493,27.08,28.02,25.81,0,111.4,12.98,27.92,142.8
"2016-07-18 00:23:00",1818695,7.629,179.4,2.753,0.255,25.7,110.8624,27.11,28.02,25.11,0,111.4,12.98,27.96,141.4
"2016-07-18 00:23:30",1818696,7.948,179.8,1.56,0.441,25.77,110.865,27.12,28,25.64,0,111.4,12.98,27.96,141.8
"2016-07-18 00:24:00",1818697,8.35,180.2,1.503,0.201,25.81,110.8661,27.12,28.03,25.48,0,111.4,12.98,27.97,142.2
"2016-07-18 00:24:30",1818698,7.545,180.1,5.082,0.463,25.84,110.8667,27.12,28.04,25.42,0,111.4,12.98,27.97,142.1
"2016-07-18 00:25:00",1818699,8.31,186.8,2.456,0.811,25.92,110.8664,27.12,28.05,25.56,0,111.4,12.98,27.97,148.8
"2016-07-18 00:25:30",1818700,7.864,187.3,4.301,0.338,25.85,110.8667,27.12,28.06,25.37,0,111.4,12.98,27.97,149.3
"2016-07-18 00:26:00",1818701,7.554,192.6,1.771,0.342,25.9,110.8664,27.12,28.07,25.63,0,111.4,12.98,27.97,154.6
"2016-07-18 00:26:30",1818702,8.6,186.1,6.126,0.763,25.89,110.8696,27.13,28.07,25.52,0,111.4,12.98,27.98,148.1
"2016-07-18 00:27:00",1818703,8.15,190.3,2.176,0.527,25.83,110.8759,27.15,28.07,25.25,0,111.4,12.98,27.99,152.3
"2016-07-18 00:27:30",1818704,7.775,188.6,1.585,0.315,25.82,110.882,27.16,28.1,25.02,0,111.4,12.98,28.01,150.6
"2016-07-18 00:28:00",1818705,7.813,189.5,2.255,0.413,25.85,110.8952,27.2,28.1,25.08,0,111.4,12.98,28.04,151.5
"2016-07-18 00:28:30",1818706,8.65,188,1.77,0.41,25.81,110.901,27.21,28.1,25.55,0,111.4,12.98,28.06,150.0
"2016-07-18 00:29:00",1818707,8.89,188.1,2.5,0.353,25.78,110.9019,27.21,28.13,25,0,111.4,12.98,28.06,150.1
"2016-07-18 00:29:30",1818708,8.49,190,1.818,0.28,25.83,110.9029,27.22,28.13,24.94,0,111.4,12.98,28.06,152.0
"2016-07-18 00:30:00",1818709,8.39,190.4,2.138,0.33,25.78,110.9026,27.21,28.16,25.21,0,111.4,12.98,28.06,152.4
"2016-07-18 00:30:30",1818710,8.2,189.2,3.129,0.507,25.86,110.9026,27.21,28.15,25.32,0,111.4,12.98,28.06,151.2
"2016-07-18 00:31:00",1818711,8.07,188,2.704,0.318,25.82,110.9019,27.21,28.16,25.48,0,111.4,12.98,28.06,150.0
"2016-07-18 00:31:30",1818712,7.88,188.4,1.338,0.151,25.83,110.9041,27.22,28.16,25.47,0,111.4,12.98,28.07,150.4
"2016-07-18 00:32:00",1818713,7.913,192,2.257,0.303,25.79,110.905,27.22,28.17,25.28,0,111.4,12.98,28.07,154.0
"2016-07-18 00:32:30",1818714,6.941,192.1,2.145,0.317,25.75,110.9056,27.22,28.17,25.37,0,111.4,12.98,28.07,154.1
"2016-07-18 00:33:00",1818715,7.294,180.6,2.564,0.303,25.67,110.9066,27.22,28.17,25.16,0,111.4,12.98,28.07,142.6
"2016-07-18 00:33:30",1818716,7.83,178.4,2.167,0.243,25.7,110.9072,27.23,28.18,25.37,0,111.4,12.98,28.07,140.4
"2016-07-18 00:34:00",1818717,8.05,182.7,2.054,0.278,25.84,110.9069,27.23,28.18,25.3,0,111.4,12.98,28.07,144.7
"2016-07-18 00:34:30",1818718,7.521,184,3.204,0.563,25.81,110.9063,27.22,28.18,25.7,0,111.4,12.98,28.07,146.0
"2016-07-18 00:35:00",1818719,7.372,184.2,2.474,0.258,25.74,110.9091,27.23,28.17,25.34,0,111.4,12.98,28.08,146.2
"2016-07-18 00:35:30",1818720,6.821,186,1.339,0.204,25.7,110.9088,27.23,28.17,24.59,0,111.4,12.99,28.08,148.0
"2016-07-18 00:36:00",1818721,6.511,182,3.52,0.216,25.64,110.9082,27.23,28.18,24.82,0,111.4,12.99,28.08,144.0
"2016-07-18 00:36:30",1818722,7.24,179.9,2.243,0.614,25.58,110.9043,27.22,28.17,25.12,0,111.4,12.98,28.07,141.9
"2016-07-18 00:37:00",1818723,7.969,179.9,2.496,0.329,25.62,110.8934,27.19,28.17,25.24,0,111.4,12.99,28.04,141.9
"2016-07-18 00:37:30",1818724,7.436,178.8,1.592,0.364,25.61,110.8844,27.17,28.16,25.42,0,111.4,12.99,28.01,140.8
"2016-07-18 00:38:00",1818725,7.209,177.2,3.995,0.493,25.69,110.8768,27.15,28.15,25.7,0,111.4,12.99,27.99,139.2
"2016-07-18 00:38:30",1818726,7.57,173.3,3.656,0.235,25.65,110.8754,27.14,28.15,25.82,0,111.4,12.98,27.99,135.3
"2016-07-18 00:39:00",1818727,7.565,177.8,1,0.211,25.63,110.8754,27.14,28.14,26.09,0,111.4,12.99,27.99,139.8
"2016-07-18 00:39:30",1818728,7.552,177.4,2.26,0.255,25.66,110.8751,27.14,28.14,26.31,0,111.4,12.98,27.99,139.4
"2016-07-18 00:40:00",1818729,7.71,177,1.787,0.244,25.64,110.8667,27.12,28.13,26.44,0,111.4,12.98,27.97,139.0
"2016-07-18 00:40:30",1818730,7.688,175.5,3.592,0.262,25.7,110.8516,27.08,28.12,27.02,0,111.4,12.98,27.93,137.5
"2016-07-18 00:41:00",1818731,7.298,171.8,1.713,0.24,25.72,110.842,27.06,28.1,26.96,0,111.4,12.98,27.90,133.8
"2016-07-18 00:41:30",1818732,6.806,172.2,2.771,0.19,25.68,110.8418,27.06,28.07,27.04,0,111.4,12.98,27.90,134.2
"2016-07-18 00:42:00",1818733,7.065,171.2,1.946,0.46,25.73,110.8415,27.06,28.07,26.75,0,111.4,12.98,27.90,133.2
"2016-07-18 00:42:30",1818734,7.143,168.5,2.189,0.277,25.79,110.8328,27.03,28.05,27.62,0,111.4,12.98,27.88,130.5
"2016-07-18 00:43:00",1818735,6.992,171.4,3.825,0.134,25.79,110.8176,27,28.04,28.11,0,111.4,12.98,27.84,133.4
"2016-07-18 00:43:30",1818736,6.91,169,4.799,0.625,25.7,110.8086,26.97,28.04,27.78,0,111.4,12.98,27.82,131.0
"2016-07-18 00:44:00",1818737,7.451,164.2,1.618,0.268,25.64,110.8081,26.97,28.01,28.45,0,111.4,12.98,27.82,126.2
"2016-07-18 00:44:30",1818738,6.594,168.7,2.63,0.567,25.71,110.8081,26.97,28,28.66,0,111.4,12.98,27.82,130.7
"2016-07-18 00:45:00",1818739,6.985,168.6,4.203,0.28,25.76,110.8061,26.97,27.99,28.9,0,111.4,12.98,27.81,130.6
"2016-07-18 00:45:30",1818740,6.872,170.4,2.374,0.159,25.81,110.7946,26.94,27.98,29.3,0,111.4,12.98,27.78,132.4
"2016-07-18 00:46:00",1818741,6.618,170.5,2.7,0.231,25.76,110.7806,26.9,27.96,29.57,0,111.4,12.98,27.75,132.5
"2016-07-18 00:46:30",1818742,6.563,164.7,2.486,0.457,25.75,110.7744,26.88,27.94,29.83,0,111.4,12.99,27.73,126.7
"2016-07-18 00:47:00",1818743,7.197,166.1,2.856,0.232,25.81,110.7744,26.88,27.95,29.8,0,111.4,12.99,27.73,128.1
"2016-07-18 00:47:30",1818744,6.794,165.5,3.393,0.297,25.8,110.7744,26.88,27.93,29.39,0,111.4,12.99,27.73,127.5
"2016-07-18 00:48:00",1818745,6.573,156.5,3.563,0.438,25.58,110.7744,26.88,27.91,29.33,0,111.4,12.99,27.73,118.5
"2016-07-18 00:48:30",1818746,6.478,159,1.789,0.353,25.54,110.7727,26.88,27.89,29.98,0,111.4,12.98,27.73,121.0
"2016-07-18 00:49:00",1818747,6.261,163,2.593,0.357,25.62,110.7612,26.85,27.88,29.82,0,111.4,12.99,27.70,125.0
"2016-07-18 00:49:30",1818748,6.469,160.5,2.202,0.145,25.53,110.7489,26.82,27.89,29.82,0,111.4,12.99,27.66,122.5
"2016-07-18 00:50:00",1818749,6.206,162.1,1.511,0.336,25.65,110.7438,26.81,27.86,29.07,0,111.4,12.99,27.65,124.1
"2016-07-18 00:50:30",1818750,5.718,160.1,1.502,0.241,25.66,110.741,26.8,27.84,29.03,0,111.4,12.99,27.64,122.1
"2016-07-18 00:51:00",1818751,6.558,163.2,3.523,0.282,25.7,110.7407,26.8,27.85,29.25,0,111.4,12.99,27.64,125.2
"2016-07-18 00:51:30",1818752,6.468,165.1,4.101,0.423,25.79,110.7407,26.8,27.85,28.75,0,111.4,12.99,27.64,127.1
"2016-07-18 00:52:00",1818753,5.928,166.4,3.599,0.195,25.69,110.7407,26.8,27.82,29.17,0,111.4,12.99,27.64,128.4
"2016-07-18 00:52:30",1818754,6.107,171.2,1.668,0.194,25.76,110.7407,26.8,27.81,28.53,0,111.4,12.99,27.64,133.2
"2016-07-18 00:53:00",1818755,6.039,169.8,1.617,0.431,25.74,110.7407,26.8,27.8,28.92,0,111.4,12.99,27.64,131.8
"2016-07-18 00:53:30",1818756,6.682,163.2,2.571,0.157,25.74,110.7407,26.8,27.8,27.92,0,111.4,12.99,27.64,125.2
"2016-07-18 00:54:00",1818757,6.92,166,2.329,0.182,25.77,110.7407,26.8,27.8,27.34,0,111.4,12.99,27.64,128.0
"2016-07-18 00:54:30",1818758,7.243,166.7,1.767,0.227,25.76,110.7407,26.8,27.8,27.97,0,111.4,12.99,27.64,128.7
"2016-07-18 00:55:00",1818759,7.081,168.7,3.114,0.28,25.8,110.7407,26.8,27.79,27.29,0,111.4,12.99,27.64,130.7
"2016-07-18 00:55:30",1818760,6.371,163.7,1.235,0.275,25.64,110.7407,26.8,27.8,28.57,0,111.4,12.99,27.64,125.7
"2016-07-18 00:56:00",1818761,5.939,163.3,2.593,0.376,25.62,110.7407,26.8,27.79,28.86,0,111.4,12.99,27.64,125.3
"2016-07-18 00:56:30",1818762,6.321,159.3,3.115,0.267,25.7,110.7407,26.8,27.79,29.11,0,111.4,12.99,27.64,121.3
"2016-07-18 00:57:00",1818763,5.888,161.5,1.366,0.166,25.59,110.7407,26.8,27.78,28.94,0,111.4,12.99,27.64,123.5
"2016-07-18 00:57:30",1818764,5.882,161.1,1.784,0.212,25.58,110.7407,26.8,27.79,29.1,0,111.4,12.99,27.64,123.1
"2016-07-18 00:58:00",1818765,6.174,160.9,4.063,0.429,25.74,110.7407,26.8,27.79,29.02,0,111.4,12.98,27.64,122.9
"2016-07-18 00:58:30",1818766,6.963,160.8,1.577,0.189,25.71,110.7407,26.8,27.79,28.95,0,111.4,12.98,27.64,122.8
"2016-07-18 00:59:00",1818767,6.509,158.7,5.397,0.313,25.7,110.7407,26.8,27.79,28.91,0,111.4,12.98,27.64,120.7
"2016-07-18 00:59:30",1818768,6.887,161.8,2.513,0.418,25.78,110.7407,26.8,27.78,28.99,0,111.4,12.98,27.64,123.8
"2016-07-18 01:00:00",1818769,6.473,164.4,3.34,0.314,25.8,110.7407,26.8,27.78,29.11,0,111.4,12.98,27.64,126.4
"2016-07-18 01:00:30",1818770,7.045,164.4,1.507,0.263,25.76,110.7407,26.8,27.79,28.81,0,111.4,12.98,27.64,126.4
"2016-07-18 01:01:00",1818771,6.637,163.6,2.082,0.162,25.75,110.7407,26.8,27.78,28.68,0,111.4,12.98,27.64,125.6
"2016-07-18 01:01:30",1818772,6.58,162.4,1.025,0.134,25.67,110.7407,26.8,27.78,28.74,0,111.4,12.98,27.64,124.4
"2016-07-18 01:02:00",1818773,6.196,162.5,3.473,0.278,25.71,110.7407,26.8,27.78,28.71,0,111.4,12.98,27.64,124.5
"2016-07-18 01:02:30",1818774,6.082,159.2,5.862,0.238,25.75,110.7407,26.8,27.79,28.95,0,111.4,12.98,27.64,121.2
"2016-07-18 01:03:00",1818775,6.875,157,3.018,0.594,25.76,110.7407,26.8,27.79,29.06,0,111.4,12.98,27.64,119.0
"2016-07-18 01:03:30",1818776,6.661,163.5,3.901,0.303,25.73,110.7407,26.8,27.79,29.07,0,111.4,12.99,27.64,125.5
"2016-07-18 01:04:00",1818777,6.709,158.8,4.571,0.201,25.68,110.7407,26.8,27.79,29.11,0,111.4,12.99,27.64,120.8
"2016-07-18 01:04:30",1818778,6.437,155.4,0.99,0.149,25.71,110.7407,26.8,27.78,29.24,0,111.4,12.99,27.64,117.4
"2016-07-18 01:05:00",1818779,6.263,153.7,1.422,0.211,25.65,110.7396,26.8,27.77,29.05,0,111.4,12.99,27.64,115.7
"2016-07-18 01:05:30",1818780,7.256,153.9,1.36,0.296,25.64,110.7379,26.79,27.79,29.27,0,111.4,12.99,27.64,115.9
"2016-07-18 01:06:00",1818781,7.763,153.4,1.38,0.32,25.73,110.7371,26.79,27.78,29.54,0,111.4,12.99,27.63,115.4
"2016-07-18 01:06:30",1818782,7.664,154.4,3.122,0.247,25.73,110.7362,26.79,27.78,29.81,0,111.4,12.99,27.63,116.4
"2016-07-18 01:07:00",1818783,7.497,155.6,2.862,0.255,25.8,110.7273,26.76,27.79,29.82,0,111.4,12.99,27.61,117.6
"2016-07-18 01:07:30",1818784,7.137,156,2.195,0.241,25.77,110.7236,26.75,27.79,29.82,0,111.4,12.99,27.60,118.0
"2016-07-18 01:08:00",1818785,6.748,149.8,2.65,0.395,25.82,110.7172,26.74,27.78,29.79,0,111.4,12.99,27.58,111.8
"2016-07-18 01:08:30",1818786,7.569,154.5,1.922,0.419,25.85,110.716,26.73,27.79,29.78,0,111.4,12.99,27.58,116.5
"2016-07-18 01:09:00",1818787,7.923,157.1,1.144,0.255,25.85,110.7138,26.73,27.76,29.59,0,111.4,12.99,27.57,119.1
"2016-07-18 01:09:30",1818788,7.973,155.7,1.257,0.226,25.79,110.7087,26.72,27.78,29.55,0,111.4,12.99,27.56,117.7
"2016-07-18 01:10:00",1818789,7.583,157,1.343,0.247,25.77,110.7074,26.71,27.76,29.69,0,111.4,12.99,27.56,119.0
"2016-07-18 01:10:30",1818790,8.16,159.3,2.921,0.408,25.85,110.7071,26.71,27.76,29.62,0,111.4,12.99,27.56,121.3
"2016-07-18 01:11:00",1818791,8.23,157.8,1.936,0.165,25.74,110.7071,26.71,27.75,29.5,0,111.4,12.99,27.56,119.8
"2016-07-18 01:11:30",1818792,7.802,158.7,1.53,0.287,25.76,110.7071,26.71,27.75,29.46,0,111.4,12.99,27.56,120.7
"2016-07-18 01:12:00",1818793,7.425,155.3,1.545,0.188,25.8,110.7034,26.7,27.75,29.53,0,111.4,12.99,27.55,117.3
"2016-07-18 01:12:30",1818794,7.26,158.8,1.99,0.172,25.77,110.6894,26.67,27.73,29.5,0,111.4,12.99,27.51,120.8
"2016-07-18 01:13:00",1818795,7.017,160.9,1.705,0.208,25.84,110.6762,26.63,27.73,28.68,0,111.4,12.99,27.48,122.9
"2016-07-18 01:13:30",1818796,7.257,156.9,1.478,0.204,25.77,110.6734,26.63,27.71,28.73,0,111.4,12.99,27.47,118.9
"2016-07-18 01:14:00",1818797,6.943,153.1,3.132,0.333,25.72,110.6734,26.63,27.72,28.82,0,111.4,12.99,27.47,115.1
"2016-07-18 01:14:30",1818798,6.923,151.1,2.419,0.311,25.72,110.6734,26.63,27.69,29.54,0,111.4,12.99,27.47,113.1
"2016-07-18 01:15:00",1818799,7.316,152.4,2.312,0.274,25.72,110.6734,26.63,27.69,29.61,0,111.4,12.99,27.47,114.4
"2016-07-18 01:15:30",1818800,7.646,151.2,2.153,0.273,25.75,110.6737,26.63,27.68,29.67,0,111.4,12.99,27.47,113.2
"2016-07-18 01:16:00",1818801,7.389,154,2.55,0.245,25.73,110.6737,26.63,27.66,29.54,0,111.4,12.99,27.47,116.0
"2016-07-18 01:16:30",1818802,7.876,152,1.598,0.246,25.7,110.672,26.62,27.66,29.69,0,111.4,12.99,27.47,114.0
"2016-07-18 01:17:00",1818803,8.15,155.6,1.491,0.405,25.77,110.6657,26.61,27.66,29.9,0,111.4,12.98,27.45,117.6
"2016-07-18 01:17:30",1818804,7.811,151.1,1.256,0.198,25.73,110.655,26.58,27.65,29.65,0,111.4,12.98,27.42,113.1
"2016-07-18 01:18:00",1818805,7.753,155.2,1.939,0.166,25.76,110.6438,26.55,27.65,29.34,0,111.4,12.98,27.39,117.2
"2016-07-18 01:18:30",1818806,8.07,155.9,1.557,0.289,25.73,110.6428,26.55,27.64,29.55,0,111.4,12.98,27.39,117.9
"2016-07-18 01:19:00",1818807,7.733,153.2,1.742,0.147,25.72,110.6428,26.55,27.63,30.09,0,111.4,12.98,27.39,115.2
"2016-07-18 01:19:30",1818808,7.705,156.5,1.522,0.23,25.81,110.6425,26.55,27.62,30.06,0,111.4,12.98,27.39,118.5
"2016-07-18 01:20:00",1818809,7.594,158.4,1.642,0.216,25.75,110.6459,26.55,27.61,29.82,0,111.4,12.98,27.40,120.4
"2016-07-18 01:20:30",1818810,7.195,154.2,2.741,0.287,25.79,110.6491,26.56,27.6,30.46,0,111.4,12.98,27.41,116.2
"2016-07-18 01:21:00",1818811,7.575,155.5,1.42,0.182,25.7,110.65,26.57,27.6,30.31,0,111.4,12.99,27.41,117.5
"2016-07-18 01:21:30",1818812,7.301,153.3,2.173,0.349,25.7,110.647,26.56,27.57,30.26,0,111.4,12.99,27.40,115.3
"2016-07-18 01:22:00",1818813,7.517,150.6,2.663,0.362,25.7,110.6395,26.54,27.57,30.72,0,111.4,12.99,27.38,112.6
"2016-07-18 01:22:30",1818814,7.267,149.8,3.378,0.477,25.61,110.6335,26.52,27.57,30.99,0,111.4,12.99,27.37,111.8
"2016-07-18 01:23:00",1818815,7.531,148.6,2.446,0.346,25.61,110.6318,26.52,27.56,31.22,0,111.4,12.99,27.36,110.6
"2016-07-18 01:23:30",1818816,7.338,148.1,2.842,0.241,25.59,110.6299,26.51,27.56,31.28,0,111.4,12.99,27.36,110.1
"2016-07-18 01:24:00",1818817,6.885,145.9,1.814,0.207,25.54,110.6287,26.51,27.55,31.34,0,111.4,12.99,27.35,107.9
"2016-07-18 01:24:30",1818818,6.882,148.4,1.827,0.104,25.61,110.6287,26.51,27.55,31.36,0,111.4,12.99,27.35,110.4
"2016-07-18 01:25:00",1818819,7.003,147.6,2.809,0.172,25.65,110.6309,26.52,27.54,31.33,0,111.4,12.99,27.36,109.6
"2016-07-18 01:25:30",1818820,7.146,151.1,2.291,0.258,25.61,110.6321,26.52,27.53,31.44,0,111.4,12.99,27.36,113.1
"2016-07-18 01:26:00",1818821,6.9,148.4,3.238,0.287,25.61,110.6296,26.51,27.53,31.49,0,111.4,12.99,27.36,110.4
"2016-07-18 01:26:30",1818822,7.116,151,1.866,0.22,25.66,110.6156,26.48,27.52,31.54,0,111.4,12.99,27.32,113.0
"2016-07-18 01:27:00",1818823,6.803,152.5,1.587,0.211,25.64,110.6048,26.45,27.51,31.55,0,111.4,12.99,27.29,114.5
"2016-07-18 01:27:30",1818824,6.573,153.2,1.671,0.156,25.67,110.6012,26.44,27.5,31.58,0,111.4,12.99,27.28,115.2
"2016-07-18 01:28:00",1818825,6.404,152.7,2.215,0.2,25.59,110.6016,26.44,27.48,31.67,0,111.4,12.99,27.28,114.7
"2016-07-18 01:28:30",1818826,6.412,155.3,1.546,0.11,25.61,110.601,26.44,27.47,31.64,0,111.4,12.99,27.28,117.3
"2016-07-18 01:29:00",1818827,6.158,151.7,2.217,0.2,25.6,110.5963,26.43,27.46,31.73,0,111.4,13,27.27,113.7
"2016-07-18 01:29:30",1818828,6.187,156.9,1.604,0.195,25.7,110.5905,26.41,27.45,31.6,0,111.4,12.99,27.26,118.9
"2016-07-18 01:30:00",1818829,6.282,151.4,2.462,0.272,25.62,110.5744,26.37,27.43,31.63,0,111.4,13,27.21,113.4
"2016-07-18 01:30:30",1818830,5.97,153.1,2.477,0.161,25.63,110.5719,26.36,27.41,31.68,0,111.4,13,27.21,115.1
"2016-07-18 01:31:00",1818831,6.24,157.5,3.734,0.172,25.72,110.5735,26.37,27.42,31.57,0,111.3,13,27.21,119.5
"2016-07-18 01:31:30",1818832,6.229,157.7,1.997,0.278,25.75,110.5725,26.37,27.41,31.52,0,111.3,13,27.21,119.7
"2016-07-18 01:32:00",1818833,6.116,156.5,1.718,0.081,25.74,110.5663,26.35,27.39,31.69,0,111.3,13,27.19,118.5
"2016-07-18 01:32:30",1818834,6.129,158.3,1.537,0.103,25.72,110.5504,26.31,27.38,31.63,0,111.4,13,27.15,120.3
"2016-07-18 01:33:00",1818835,6.094,158.8,0.772,0.07,25.75,110.5425,26.29,27.35,31.61,0,111.4,13,27.13,120.8
"2016-07-18 01:33:30",1818836,6.131,158.6,1.42,0.184,25.79,110.5423,26.29,27.35,31.73,0,111.3,13,27.13,120.6
"2016-07-18 01:34:00",1818837,6.515,160.8,2.043,0.176,25.83,110.5416,26.29,27.33,31.52,0,111.3,13,27.13,122.8
"2016-07-18 01:34:30",1818838,6.15,156.1,1.874,0.184,25.79,110.5405,26.28,27.32,31.48,0,111.3,13,27.13,118.1
"2016-07-18 01:35:00",1818839,6.527,159.5,2.483,0.173,25.86,110.5386,26.28,27.31,31.62,0,111.3,13,27.12,121.5
"2016-07-18 01:35:30",1818840,6.556,157.1,1.611,0.166,25.8,110.5332,26.26,27.3,31.85,0,111.3,13,27.11,119.1
"2016-07-18 01:36:00",1818841,6.612,158.4,1.565,0.168,25.85,110.5246,26.24,27.28,32.01,0,111.3,13,27.09,120.4
"2016-07-18 01:36:30",1818842,6.728,155,0.994,0.126,25.81,110.5128,26.21,27.27,32.07,0,111.3,13,27.06,117.0
"2016-07-18 01:37:00",1818843,6.447,155.8,1.09,0.237,25.78,110.5086,26.2,27.27,32.11,0,111.3,13,27.04,117.8
"2016-07-18 01:37:30",1818844,6.237,157.7,1.09,0.168,25.78,110.5086,26.2,27.25,32.19,0,111.3,13,27.04,119.7
"2016-07-18 01:38:00",1818845,6.163,159.8,2.218,0.224,25.85,110.5086,26.2,27.24,32.2,0,111.3,13,27.04,121.8
"2016-07-18 01:38:30",1818846,5.756,153.5,2.647,0.23,25.75,110.5086,26.2,27.23,32.35,0,111.3,13,27.04,115.5
"2016-07-18 01:39:00",1818847,5.614,149.8,1.848,0.212,25.76,110.5086,26.2,27.22,32.47,0,111.3,13,27.04,111.8
"2016-07-18 01:39:30",1818848,5.938,154.1,1.481,0.289,25.79,110.5086,26.2,27.22,32.53,0,111.3,13,27.04,116.1
"2016-07-18 01:40:00",1818849,5.702,151.7,3.061,0.409,25.81,110.508,26.2,27.2,32.57,0,111.3,13,27.04,113.7
"2016-07-18 01:40:30",1818850,5.945,148,2.272,0.149,25.81,110.5047,26.19,27.21,32.73,0,111.3,13,27.03,110.0
"2016-07-18 01:41:00",1818851,5.876,146.6,1.2,0.116,25.82,110.4988,26.18,27.2,32.84,0,111.3,13,27.02,108.6
"2016-07-18 01:41:30",1818852,5.579,147.3,2.463,0.188,25.75,110.4954,26.17,27.2,32.88,0,111.3,13,27.01,109.3
"2016-07-18 01:42:00",1818853,5.355,144.5,1.195,0.137,25.79,110.4887,26.15,27.19,32.91,0,111.3,13,26.99,106.5
"2016-07-18 01:42:30",1818854,5.335,139.6,2.475,0.159,25.84,110.4867,26.15,27.17,32.96,0,111.3,13,26.99,101.6
"2016-07-18 01:43:00",1818855,5.851,136.4,2.539,0.153,25.79,110.4808,26.13,27.18,32.93,0,111.3,13,26.97,98.4
"2016-07-18 01:43:30",1818856,5.983,133,1.228,0.189,25.72,110.476,26.12,27.18,32.96,0,111.3,13,26.96,95.0
"2016-07-18 01:44:00",1818857,5.592,129.5,2.067,0.156,25.86,110.4749,26.11,27.18,32.94,0,111.3,13,26.96,91.5
"2016-07-18 01:44:30",1818858,5.642,132.5,1.069,0.175,25.94,110.4749,26.11,27.16,32.85,0,111.3,13,26.96,94.5
"2016-07-18 01:45:00",1818859,5.762,128.1,2.779,0.267,25.98,110.4749,26.11,27.14,32.85,0,111.3,13,26.96,90.1
"2016-07-18 01:45:30",1818860,5.578,125.7,3.575,0.381,25.94,110.4749,26.11,27.14,32.96,0,111.3,13,26.96,87.7
"2016-07-18 01:46:00",1818861,5.729,123.6,0.931,0.24,25.97,110.4713,26.11,27.14,32.96,0,111.3,13,26.95,85.6
"2016-07-18 01:46:30",1818862,6.082,119.8,2.366,0.087,25.99,110.4567,26.07,27.13,32.78,0,111.3,13,26.91,81.8
"2016-07-18 01:47:00",1818863,6.49,112.9,3.99,0.273,26.04,110.4443,26.04,27.12,32.84,0,111.3,13,26.88,74.9
"2016-07-18 01:47:30",1818864,4.628,101.4,4.582,1.494,26.11,110.4407,26.03,27.09,33.16,0,111.3,13,26.87,63.4